Flag for Guadeloupe Weather past 2 weeks in Basse-Terre, Guadeloupe

Now
82 °F

Broken clouds.


Feels Like: 89 °F
Forecast: 78 / 82 °F
Wind: 10 mph from East

Location: Le Raizet - Guadeloupe

Current Time: Jul 24, 2014 at 9:38:54 AM

Latest Report: Jul 24, 2014 at 9:00 AM


Visibility: N/A

Pressure: 30.04 "Hg

Humidity: 79%

Dew point: 75 °F

Location of Basse-TerreLocation

Historic Weather in Basse-Terre — Graph

°F

Basse-Terre temperature yesterday

Maximum temperature yesterday: 90 °F (at 12:30 PM)
Minimum temperature yesterday: 75 °F (at 1:00 AM)
Average temperature yesterday: 83 °F

Past Weeks' High & Low Weather Summary

 TemperatureHumidityPressure
High90 °F (Jul 13, 1:00 PM)94% (Jul 10, 5:30 AM)30.12 "Hg (Jul 10, 5:30 AM)
Low73 °F (Jul 18, 6:30 AM)46% (Jul 9, 3:04 PM)29.95 "Hg (Jul 24, 4:30 AM)
Average82 °F70%30.05 "Hg
* Reported Jul 9 9:00 AM — Jul 24 8:30 AM, Basse-Terre, Weather by CustomWeather, © 2014

Note: Actual official high and low records may vary slightly from our data, if they occured in-between our weather recording intervals... More about our weather records

Advertising

Basse-Terre weather history for previous 24 hours

 ConditionsComfort  
Time TempWeatherWind HumidityBarometerVisibility
8:30 AM
Jul 24
81 °FBroken clouds.12 mph84%30.04 "HgN/A
8:00 AM81 °FBroken clouds.13 mph84%30.01 "HgN/A
7:30 AM79 °FBroken clouds.9 mph84%30.01 "HgN/A
7:00 AM79 °FPartly sunny.6 mph84%30.01 "HgN/A
6:30 AM77 °FBroken clouds.12 mph89%30.01 "HgN/A
6:00 AM79 °FHeavy rain. Broken clouds.13 mph84%29.98 "HgN/A
5:30 AM79 °FPartly cloudy.9 mph89%29.98 "HgN/A
5:00 AM79 °FLight rain. Partly cloudy.9 mph89%29.98 "Hg4 mi
4:30 AM79 °FOvercast.8 mph89%29.95 "HgN/A
4:00 AM79 °FLight rain. Passing clouds.9 mph84%29.98 "HgN/A
3:30 AM81 °FPassing clouds.14 mph74%29.98 "HgN/A
3:00 AM82 °FPartly cloudy.10 mph70%29.98 "HgN/A
2:30 AM82 °FMostly cloudy.12 mph70%29.98 "HgN/A
1:30 AM81 °FMostly cloudy.9 mph74%30.01 "HgN/A
1:00 AM82 °FPartly cloudy.12 mph70%30.01 "HgN/A
12:30 AM81 °FOvercast.9 mph74%30.01 "HgN/A
12:00 AM81 °FPassing clouds.12 mph74%30.04 "HgN/A
11:30 PM
Jul 23
81 °FPartly cloudy.9 mph74%30.01 "HgN/A
11:00 PM81 °FPartly cloudy.10 mph74%30.04 "HgN/A
10:30 PM81 °FPartly cloudy.12 mph74%30.04 "HgN/A
10:00 PM81 °FPassing clouds.12 mph70%30.04 "HgN/A
9:30 PM82 °FPassing clouds.10 mph66%30.04 "HgN/A
9:00 PM82 °FPartly cloudy.12 mph66%30.04 "HgN/A
8:30 PM82 °FMostly cloudy.10 mph70%30.01 "HgN/A
8:00 PM82 °FMostly cloudy.12 mph70%30.01 "HgN/A
7:30 PM82 °FPassing clouds.12 mph66%30.01 "HgN/A
7:00 PM82 °FPassing clouds.14 mph66%30.01 "HgN/A
6:30 PM82 °FPassing clouds.15 mph66%30.01 "HgN/A
6:00 PM84 °FPassing clouds.16 mph62%29.98 "HgN/A
5:30 PM84 °FPassing clouds.17 mph62%29.98 "HgN/A
5:00 PM86 °FPassing clouds.16 mph55%29.98 "HgN/A
4:30 PM88 °FPassing clouds.18 mph49%29.98 "HgN/A
4:00 PM88 °FPassing clouds.20 mph49%29.98 "HgN/A
3:00 PM88 °FPassing clouds.18 mph52%30.01 "HgN/A
2:30 PM88 °FPassing clouds.16 mph49%30.01 "HgN/A
2:00 PM88 °FPassing clouds.18 mph55%30.01 "HgN/A
1:30 PM88 °FScattered clouds.20 mph52%30.01 "HgN/A
1:00 PM88 °FScattered clouds.18 mph49%30.04 "HgN/A
12:30 PM90 °FScattered clouds.20 mph46%30.04 "HgN/A
12:00 PM88 °FScattered clouds.20 mph49%30.04 "HgN/A
11:30 AM88 °FScattered clouds.18 mph49%30.07 "HgN/A
11:00 AM88 °FScattered clouds.18 mph55%30.07 "HgN/A
10:30 AM88 °FScattered clouds.20 mph55%30.07 "HgN/A
10:00 AM86 °FScattered clouds.20 mph55%30.07 "HgN/A
9:30 AM86 °FScattered clouds.17 mph59%30.07 "HgN/A
9:00 AM86 °FScattered clouds.16 mph62%30.07 "HgN/A
Weather by CustomWeather, © 2014

See weather overviewHow to use our weather pages